Location: Unspecified
(40.9447°N, 78.9903°W)
Time: 02:51:44
(UTC-04:00)

Okean 3 - Pass Details

Date: 28 July 2021
Orbit: 575 x 601 km, 82.5° (Epoch: 26 September)

Event Time Altitude Azimuth Distance (km) Brightness Sun altitude
Rises 02:35:57 0° 348° (NNW) 2,852 7.8 -27.8°
Reaches altitude 10° 02:38:11 10° 346° (NNW) 1,942 6.8 -27.6°
Enters shadow 02:40:58 38° 330° (NNW) 917 4.6 -27.4°
